2021-022AE

Last updated on Thu Apr 22 2021 00:02:03 GMT+0000 (Coordinated Universal Time)

1 47960U 21022AE 21111.57500065 .00000645 00000-0 48708-4 0 9993 2 47960 97.5634 14.8711 0022070 141.1397 337.7366 15.05666837 4007

Satellite not in orbit

2021-022AE